This demonstration page uses our WeatherBlox Daily Observations layout. Learn more.

Left ArrowRight Arrow

Hourly Observations for May 6, 2019

Temp ( °F °C ) Dew Point ( °F °C ) Humidity (%) Winds ( mph kmh ) Pressure ( in mb ) Visibility ( mi km ) Precip ( " mm )
12:16 am 00:16 Clear 52 11 52 11 100 100 N N/A 29.95 1014 10 16.0934 N/A
12:35 am 00:35 Clear 52 11 52 11 100 100 N N/A 29.96 1014 10 16.0934 N/A
12:55 am 00:55 Clear 52 11 52 11 100 100 N N/A 29.97 1015 10 16.0934 N/A
1:15 am 01:15 Clear 50 10 50 10 100 100 S 3 6 29.97 1015 10 16.0934 N/A
1:35 am 01:35 Clear 52 11 52 11 100 100 SSW 3 6 29.98 1015 10 16.0934 N/A
1:55 am 01:55 Clear 52 11 52 11 100 100 N N/A 29.98 1015 10 16.0934 N/A
2:15 am 02:15 Clear 50 10 50 10 100 100 N N/A 29.97 1015 10 16.0934 N/A
2:35 am 02:35 Clear 50 10 50 10 100 100 N N/A 29.97 1015 10 16.0934 N/A
2:55 am 02:55 Clear 48 9 48 9 100 100 SSE 5 7 29.97 1015 10 16.0934 N/A
3:15 am 03:15 Clear 50 10 50 10 100 100 N N/A 29.96 1015 10 16.0934 N/A
3:35 am 03:35 Clear 48 9 48 9 100 100 N N/A 29.97 1015 10 16.0934 N/A
3:55 am 03:55 Clear 48 9 48 9 100 100 SE 3 6 29.97 1015 10 16.0934 N/A
4:15 am 04:15 Clear 48 9 48 9 100 100 N N/A 29.98 1015 10 16.0934 N/A
4:35 am 04:35 Clear 48 9 48 9 100 100 N N/A 29.99 1016 10 16.0934 N/A
4:55 am 04:55 Clear 48 9 48 9 100 100 N N/A 30 1016 10 16.0934 N/A
5:15 am 05:15 Clear 48 9 48 9 100 100 N N/A 30.01 1016 10 16.0934 N/A
5:35 am 05:35 Clear 48 9 48 9 100 100 N N/A 30.01 1016 10 16.0934 N/A
5:55 am 05:55 Clear 46 8 46 8 100 100 N N/A 30.03 1017 10 16.0934 N/A
6:15 am 06:15 Clear 46 8 46 8 100 100 N N/A 30.03 1017 10 16.0934 N/A
6:36 am 06:36 Clear 46 8 46 8 100 100 S 3 6 30.03 1017 10 16.0934 N/A
6:55 am 06:55 Sunny 46 8 46 8 100 100 S 3 6 30.03 1017 10 16.0934 N/A
7:15 am 07:15 Sunny 48 9 48 9 100 100 N N/A 30.03 1017 10 16.0934 N/A
7:35 am 07:35 Sunny 50 10 50 10 100 100 S 3 6 30.04 1017 10 16.0934 N/A
7:55 am 07:55 Sunny 52 11 52 11 100 100 N N/A 30.05 1018 10 16.0934 N/A
8:15 am 08:15 Sunny 54 12 54 12 100 100 N N/A 30.05 1018 10 16.0934 N/A
8:35 am 08:35 Sunny 57 14 54 12 88 88 S 3 6 30.05 1018 10 16.0934 N/A
8:55 am 08:55 Sunny 59 15 54 12 82 82 S 5 7 30.05 1018 10 16.0934 N/A
9:15 am 09:15 Sunny 61 16 54 12 77 77 S 8 13 30.05 1018 10 16.0934 N/A
9:35 am 09:35 Sunny 63 17 54 12 73 73 S 8 13 30.05 1018 10 16.0934 N/A
9:55 am 09:55 Sunny 64 18 52 11 64 64 S 10 17 30.04 1017 10 16.0934 N/A
10:15 am 10:15 Sunny 66 19 54 12 64 64 SW 9 15 30.04 1017 10 16.0934 N/A
10:35 am 10:35 Sunny 66 19 54 12 64 64 SSW 10 17 30.04 1017 10 16.0934 N/A
10:56 am 10:56 Sunny 68 20 54 12 60 60 S 7 11 30.04 1017 10 16.0934 N/A
11:15 am 11:15 Sunny 70 21 55 13 60 60 S 8 13 30.05 1017 10 16.0934 N/A
11:35 am 11:35 Sunny 70 21 54 12 57 57 SSW 10 17 30.05 1017 10 16.0934 N/A
11:55 am 11:55 Sunny 70 21 55 13 60 60 SSW 10 17 30.05 1017 10 16.0934 N/A
12:15 pm 12:15 Sunny 72 22 54 12 53 53 SSW 10 17 30.04 1017 10 16.0934 N/A
12:35 pm 12:35 Sunny 72 22 55 13 57 57 SW 9 15 30.04 1017 10 16.0934 N/A
12:55 pm 12:55 Sunny 72 22 55 13 57 57 S 9 15 30.04 1017 10 16.0934 N/A
1:15 pm 13:15 Sunny 73 23 54 12 50 50 S 5 7 30.03 1017 10 16.0934 N/A
1:35 pm 13:35 Sunny 73 23 55 13 53 53 SSW 9 15 30.03 1017 10 16.0934 N/A
1:55 pm 13:55 Sunny 73 23 54 12 50 50 SW 12 19 30.03 1017 10 16.0934 N/A
2:15 pm 14:15 Sunny 73 23 54 12 50 50 WSW 10 17 30.02 1017 10 16.0934 N/A
2:35 pm 14:35 Sunny 75 24 54 12 47 47 WSW 9 15 30.02 1016 10 16.0934 N/A
2:55 pm 14:55 Sunny 75 24 54 12 47 47 WSW 10 17 30.02 1016 10 16.0934 N/A
3:15 pm 15:15 Sunny 75 24 54 12 47 47 S 10 17 30.01 1016 10 16.0934 N/A
3:35 pm 15:35 Sunny 75 24 55 13 50 50 SW 7 11 30.01 1016 10 16.0934 N/A
3:55 pm 15:55 Sunny 77 25 55 13 47 47 SSW 7 11 29.99 1016 10 16.0934 N/A
4:15 pm 16:15 Sunny 77 25 55 13 47 47 SSW 12 19 29.98 1015 10 16.0934 N/A
4:36 pm 16:36 Sunny 77 25 55 13 47 47 SW 8 13 29.99 1016 10 16.0934 N/A
4:55 pm 16:55 Sunny 77 25 54 12 44 44 W 9 15 29.98 1015 10 16.0934 N/A
5:16 pm 17:16 Sunny 77 25 54 12 44 44 SSW 10 17 29.98 1015 10 16.0934 N/A
5:35 pm 17:35 Sunny 77 25 55 13 47 47 WSW 8 13 29.99 1016 10 16.0934 N/A
5:55 pm 17:55 Sunny 77 25 55 13 47 47 W 8 13 29.99 1016 10 16.0934 N/A
6:15 pm 18:15 Sunny 77 25 55 13 47 47 WSW 9 15 29.98 1015 10 16.0934 N/A
6:35 pm 18:35 Sunny 75 24 55 13 50 50 SW 8 13 30 1016 10 16.0934 N/A
6:56 pm 18:56 Sunny 75 24 55 13 50 50 SSW 8 13 30.01 1016 10 16.0934 N/A
7:15 pm 19:15 Sunny 75 24 55 13 50 50 SSW 6 9 30.01 1016 10 16.0934 N/A
7:35 pm 19:35 Sunny 75 24 55 13 50 50 SW 9 15 30.01 1016 10 16.0934 N/A
7:55 pm 19:55 Sunny 73 23 57 14 57 57 SSW 8 13 30 1016 10 16.0934 N/A
8:15 pm 20:15 Sunny 72 22 55 13 57 57 SSW 5 7 30 1016 10 16.0934 N/A
8:35 pm 20:35 Sunny 70 21 57 14 64 64 SW 5 7 30.02 1016 10 16.0934 N/A
8:55 pm 20:55 Clear 66 19 55 13 68 68 WSW 5 7 30.03 1017 10 16.0934 N/A
9:15 pm 21:15 Clear 64 18 55 13 73 73 WSW 6 9 30.04 1017 10 16.0934 N/A
9:35 pm 21:35 Clear 63 17 55 13 77 77 WSW 6 9 30.06 1018 10 16.0934 N/A
9:55 pm 21:55 Clear 63 17 54 12 73 73 WSW 6 9 30.07 1018 10 16.0934 N/A
10:15 pm 22:15 Clear 64 18 54 12 68 68 SW 7 11 30.07 1018 10 16.0934 N/A
10:35 pm 22:35 Clear 64 18 54 12 68 68 SW 7 11 30.07 1018 10 16.0934 N/A
10:55 pm 22:55 Clear 63 17 54 12 73 73 SW 5 7 30.08 1019 10 16.0934 N/A
11:15 pm 23:15 Clear 63 17 54 12 73 73 SW 7 11 30.08 1019 10 16.0934 N/A
11:35 pm 23:35 Clear 61 16 54 12 77 77 WSW 6 9 30.08 1019 10 16.0934 N/A
11:55 pm 23:55 Clear 63 17 54 12 73 73 SW 5 7 30.07 1018 10 16.0934 N/A

Powered by AerisWeather